Погода в Брашове

Румыния     45°38′40″N   25°36′10″E
темп.,
°C
ветер,
м/с
пор.,
м/с
влажн.,
%
обл.,
%
осадки,
мм/ч
давл.,
гПа
погр.,
м
8 августа, пн
пн800:00+16вюв22895 0.0 101826
03:00+15вюв11936 0.0 101920
06:00+14вюв229373 0.0 101928
09:00+20в226893 0.0 1019310
12:00+29всв22361 0.0 10171547
15:00+30юв122996 0.0 10162923
18:00+20ю257696 0.3 1019163
21:00+17ююз118537 0.3 102021
9 августа, вт
вт900:00+15юз118710 0.1 102111
03:00+14ююз00875 0.1 102111
06:00+14юв11889 0.0 102012
09:00+20всв12675 0.0 1020291
12:00+29в23345 0.0 10181537
15:00+24всв594899 0.0 1017379
18:00+20с1163100 0.1 101737
21:00+19зсз116775 0.2 101825
10 августа, ср
ср1000:00+15зюз118487 0.0 102013
03:00+14ююв229449 0.0 101928
06:00+13вюв119776 0.0 101921
09:00+19в347689 0.1 1019660
12:00+23всв435280 0.0 10171072
15:00+21в1266100 0.6 1017511
18:00+23в335220 0.6 10161058
21:00+15всв2393100 4.1 101975
11 августа, чт
чт1100:00+13юв239590 0.6 1020114
03:00+13вюв119696 0.6 101920
06:00+12ю119579 0.0 101925
09:00+15вюв118660 0.0 1019328
12:00+21всв235165 0.1 10181446
15:00+24всв333868 0.1 10162124
18:00+23всв3446100 0.0 1016740
21:00+18всв386110 0.0 1017269
12 августа, пт
пт1200:00+13юв11850 0.0 101814
03:00+11ююв11900 0.0 101913
06:00+10юв11931 0.0 101913
09:00+17в12630 0.0 1018283
12:00+26всв12355 0.0 10171110
15:00+30св122655 0.0 10142528
18:00+23юв1143100 0.0 101512
21:00+19в117138 0.2 101624